User: anonymous   Login
Location: Unspecified
(0.0000°N, 0.0000°E)
Time: 04:38:32
(UTC+00:00)
Language:

KEPLER-O (KIPP) - Orbit

View from above orbital plane
View from above orbital plane
View from above satellite
View from above satellite

Ground track
Ground track

The orbit data is extracted from the following two-line orbital elements,

1 43157U 18008C   18350.88369567  .00001099  00000-0  71316-4 0  9997
2 43157  97.5148  61.9970 0014797 224.3780 195.8668 15.10058371 50045
Epoch (UTC): 16 December 2018 21:12:31
Eccentricity: 0.0014797
inclination: 97.5148°
perigee height: 526 km
apogee height: 546 km
right ascension of ascending node: 61.9970°
argument of perigee: 224.3780°
revolutions per day: 15.10058371
mean anomaly at epoch: 195.8668°
orbit number at epoch: 5004

The dashed part of the orbit path shows where the satellite is in the earth's shadow,  

DLR